Regional Weather Roundup
Issued by NWS Grand Forks, ND

Home | Current Version | Previous Version | Text Only | Print | Product List | Glossary On
Versions: 1 2 3 4 5 6 7 8 9 10 11 12 13 14 15 16 17 18 19 20 21 22 23 24 25 26 27 28 29 30 31 32 33 34 35 36 37 38 39 40 41 42 43 44 45 46 47 48 49 50
000
ASUS43 KFGF 091331
RWRFGF
PRAIRIE TO PINES  WEATHER ROUNDUP
NATIONAL WEATHER SERVICE EASTERN NORTH DAKOTA/GRAND FORKS ND
700 AM CST FRI DEC 09 2016

 **SATELLITE DATA USED TO AUGMENT SKY COVER AT AUTOMATED STATIONS**
 *****  WEATHER ACROSS EASTERN NORTH DAKOTA  *****

CITY           SKY/WX    TMP DP  RH WIND       PRES   REMARKS
GRAND FORKS    CLOUDY     2  -5  72 W9        30.57S WCI -13
GRAND FRKS AFB CLOUDY    -1  -8  72 NW7       30.57S WCI -14
DEVILS LAKE    CLEAR    -12 -16  82 CALM      30.54S
FARGO          CLOUDY     8   1  73 NW9       30.57S WCI  -5
WAHPETON ARPT  CLOUDY     1  -4  78 W7        30.58S WCI -11
$$

 ***** WEATHER ACROSS CENTRAL AND WESTERN NORTH DAKOTA  *****

CITY           SKY/WX    TMP DP  RH WIND       PRES   REMARKS
BISMARCK       CLOUDY   -12 -16  82 CALM      30.56S
MINOT          CLOUDY   -11 -15  82 W7        30.52F WCI -26
JAMESTOWN      CLEAR    -10 -14  82 NW5       30.52F WCI -22
MINOT AFB      CLOUDY   -15 -20  77 NW9       30.53S WCI -33
GARRISON         N/A    -16 -20  82 NW10      30.51S WCI -36
WILLISTON      CLOUDY   -16 -20  82 CALM      30.56R
DICKINSON      ICE FOG  -19 -23  81 CALM      30.44S VSB 1/2
HETTINGER      CLOUDY   -15 -19  82 CALM      30.43S
$$

 *****  OTHER AIRPORT OBSERVATIONS IN OUR AREA  *****

CITY           SKY/WX    TMP DP  RH WIND       PRES   REMARKS
WALHALLA         N/A      0   0 100 W6        30.57F WCI -12
GRAFTON AIRPOR CLOUDY     5   0  78 N10       30.59S WCI -10
VALLEY CITY AR PTSUNNY   -8  -9  92 CALM      30.55S
CANDO          FAIR     -13 -17  84 NW5       30.56S WCI -25
CAVALIER APRT    N/A      3   0  85 NW8       30.57F WCI -10
GWINNER        FAIR      -2  -8  78 W7        30.56R WCI -16
SHEYENNE NWR     N/A     -1  -8  72 W5        29.95S WCI -11
ROLLA          FAIR     -13 -18  77 CALM      30.49S
 ***** THE ABOVE OBSERVATIONS ARE NON NWS ARE NOT QUALITY
       CONTROLLED AND MAY MIS-REPORT RAIN FOR SNOW...
$$

  *****  WEATHER ACROSS NORTHERN MINNESOTA  *****

CITY           SKY/WX    TMP DP  RH WIND       PRES   REMARKS
FLAG ISLAND    CLOUDY     1  -2  85 W13       30.49S WCI -16
WARROAD        CLOUDY     3  -2  78 NW10      30.52R WCI -12
ROSEAU         CLOUDY     3  -2  78 W5        30.53R WCI  -6
HALLOCK        CLOUDY     3   0  85 N9        30.56F WCI -11
THF RVR FALLS  FLURRIES   6   3  87 W7        30.53S WCI  -6
BAUDETTE       CLOUDY     3  -5  69 W14G22    30.48S WCI -15
WASKISH        CLOUDY     5   0  78 NW8       30.50S WCI  -8
CROOKSTON      CLOUDY     7   1  78 NW12      30.57S WCI  -9
STEPHEN NDAWN    N/A      5   1  85 N7          N/A  WCI  -7
GREENBUSH NDAW   N/A      3   0  85 N6          N/A  WCI  -8
$$
  *****  WEATHER ACROSS CENTRAL AND WEST MINNESOTA  *****

CITY           SKY/WX    TMP DP  RH WIND       PRES   REMARKS
FOSSTON        LGT SNOW   3   0  85 CALM      30.51F
BEMIDJI        FLURRIES   4   0  83 NW3       30.48F
PARK RAPIDS    CLOUDY     7   0  73 NW6       30.48S WCI  -3
ELBOW LAKE     CLOUDY     2  -1  85 NW7       30.55F WCI -10
WADENA         FLURRIES   7   3  85 NW5       30.50S WCI  -2
DETROIT LAKES  FLURRIES   7   5  92 W6        30.51S WCI  -3
MOORHEAD       MIX PCPN   7   1  78 NW5       30.57S WCI  -2
FERGUS FALLS   CLOUDY     3   0  85 W8        30.60S WCI -10
MORRIS MN      CLOUDY     3   0  85 NW7       30.54F WCI  -9
STAPLES        CLOUDY     7   3  85 NW6       30.50S WCI  -3
$$
  *****  WEATHER ELSEWHERE ACROSS MINNESOTA  *****

CITY           SKY/WX    TMP DP  RH WIND       PRES   REMARKS
DULUTH         PTCLDY    10   3  73 NW7       30.42S WCI  -1
INTRNTL FALLS  LGT SNOW   6   1  80 W9        30.46R WCI  -8
ELY            LGT SNOW   9   5  85 W7        30.40S WCI  -3
CLOQUET        FLURRIES   9   5  85 W7        30.45R WCI  -3
WHEATON        PTCLDY     0  -6  78 W6        30.59F WCI -12
BRAINERD       CLOUDY    10   5  80 NW6       30.50R WCI   0
HIBBING        CLOUDY     5   1  83 NW7       30.45R FOG     WCI  -7
ALEXANDRIA     CLOUDY     5   2  87 W7        30.52S WCI  -7
SAINT CLOUD    MOCLDY     6   3  87 W6        30.53S WCI  -4
MINNEAPOLIS    CLOUDY    15   9  76 W7        30.54S WCI   5
$$

  *****  WEATHER ACROSS SOUTH DAKOTA  *****

CITY           SKY/WX    TMP DP  RH WIND       PRES   REMARKS
SIOUX FALLS    CLOUDY     0  -4  83 CALM      30.54F
BROOKINGS      CLEAR     -4  -7  87 NW6       30.51F WCI -16
WATERTOWN      CLOUDY    -4  -8  83 NW6       30.49F WCI -16
HURON          CLOUDY    -2  -5  87 NW6       30.59R WCI -14
SISSETON         N/A     -2  -8  76 NW7       30.56S WCI -15
ABERDEEN       CLOUDY    -5 -11  75 NW7       30.58S WCI -19
MITCHELL       CLOUDY     1  -4  79 N5        30.59F WCI  -9
PIERRE         CLOUDY     2  -3  80 E8        30.50F WCI -12
MOBRIDGE       CLOUDY    -3  -9  75 NW8       30.51R WCI -18
RAPID CITY     LGT SNOW  -1  -6  79 N9        30.31F WCI -16
$$

  *****  SOME WEATHER IN NEARBY STATES *****

CITY           SKY/WX    TMP DP  RH WIND       PRES   REMARKS
GLASGOW MT     CLOUDY    -4  -9  79 E13       30.49S WCI -23
GREAT FALLS MT LGT SNOW  -3  -8  79 N3        30.28R
CHEYENNE WY    CLOUDY    12   7  80 S3        30.00R
SCOTTSBLUFF NE CLOUDY    16   8  71 SE10      30.10F WCI   4
OMAHA NE       MOCLDY     8   2  76 N3        30.63S
DES MOINES IA  NOT AVBL
DAVENPORT IA   CLOUDY    16  11  80 W10       30.56S WCI   4
CHICAGO IL     FLURRIES  23  17  78 W10       30.48R WCI  12
EAU CLAIRE WI  CLOUDY    11   9  92 SW5       30.50S WCI   3
LA CROSSE WI   CLOUDY    21  11  65 N10       30.52S WCI  10
$$

  *****  SOME NATIONAL WEATHER *****

CITY           SKY/WX    TMP DP  RH WIND       PRES   REMARKS
LA GUARDIA NY  FAIR      34  19  54 W12       30.09R
RALEIGH NC     FAIR      30  16  56 CALM      30.36R
ATLANTA GA     FAIR      28  17  63 NW10      30.44R WCI  19
NEW ORLEANS LA MOCLDY    40  27  59 NE10G25   30.52R
OKLAHOMA CITY  MOCLDY    23  11  60 E8        30.61F WCI  14
ALBUQUERQUE NM PTCLDY    26  18  71 NE3       30.35R
SALT LAKE CITY CLOUDY    32  29  88 SE3       30.19S
LOS ANGELES CA MOCLDY    54  49  83 E3        30.24F
BOISE ID       CLOUDY    26  23  88 CALM      30.13F
SEATTLE WA     FLURRIES  33  29  85 E13       29.95F WCI  24
$$

*** WEATHER ACROSS MANITOBA...SASKATCHEWAN AND ONTARIO ***
                ***ONTARIO***

CITY           SKY/WX    TMP DP  RH WIND       PRES   REMARKS
GERALDTON      FLURRIES   7   3  85 NW8       30.33S WCI  -6
THUNDER BAY    FLURRIES  14   5  67 NW9       30.43S WCI   2
SIOUX LOOKOUT  LGT SNOW   7   3  85 N6        30.38F WCI  -3
TORONTO        LGT SNOW  21  16  79 N12       30.21R WCI   9
BIG TROUT LK   FLURRIES   0  -4  85 NW13      30.40F WCI -18
PICKLE LAKE    FLURRIES   1  -2  85 N3        30.36S
DRYDEN         LGT SNOW   3   0  85 W7        30.39S WCI  -9
KENORA         FLURRIES   3   0  85 W6        30.43S WCI  -8
$$
                *** MANITOBA***

CITY           SKY/WX    TMP DP  RH WIND       PRES   REMARKS
BRANDON        MOCLDY   -17 -22  76 W10       30.55R WCI -37
DAUPHIN        FLURRIES  -4  -9  77 N7        30.59S WCI -18
ISLAND LAKE    NOT AVBL
PILOT MOUND      N/A    -15 -18  84 NW6         N/A  WCI -29
THE PAS        LGT SNOW  -8 -13  77 NW13      30.61S WCI -28
THOMPSON       FLURRIES -22 -27  76 CALM      30.59F
WINNIPEG       FLURRIES   1  -6  71 W13       30.57S WCI -16
LYNN LAKE      FLURRIES -15 -18  84 NW7       30.60R WCI -31
CHURCHILL      PTCLDY    -4  -8  84 NW24G31   30.52S WCI -29
GILLAM         PTCLDY   -15 -22  70 NW12      30.55S WCI -36
$$
                ***SASKATCHEWAN***

CITY           SKY/WX    TMP DP  RH WIND       PRES   REMARKS
ESTEVAN        PTCLDY   -24 -29  76 NW7       30.53S WCI -42
KINDERSLEY     CLOUDY    -9 -15  77 CALM      30.52F
LLOYDMINSTER   CLEAR    -18 -22  83 SW5       30.54F WCI -31
PRINCE ALBERT  CRYSTALS -18 -24  76 W3        30.63F
REGINA         CLEAR    -18 -24  76 NW7       30.56F WCI -35
YORKTON        MOCLDY   -15 -20  76 W7        30.55S WCI -31
N. BATTLEFORD  CLEAR    -18 -24  76 N3        30.62F
LA RONGE       CLEAR    -20 -26  76 W2        30.66F
SASKATOON      CRYSTALS -13 -18  77 W5        30.63S WCI -25
SWIFT CURRENT  FLURRIES  -8  -9  92 N6        30.45S WCI -21
$$
NOTE: THESE ARE AUTOMATED STATIONS WITH LIMITED QUALITY CONTROL
      "FAIR" INDICATES FEW OR NO CLOUDS BELOW 12,000 FEET WITH NO
      SIGNIFICANT WEATHER AND/OR OBSTRUCTIONS TO VISIBILITY.
      SKY/WX - SKY CONDITION AND SIGNIFICANT WEATHER.
      TMP - AIR TEMPERATURE.    DP   - DEWPOINT TEMPERATURE.
      RH  - RELATIVE HUMIDITY.  PRES - PRESSURE.
      HX  - HEAT INDEX.         WCI  - WIND CHILL INDEX.
$



USA.gov is the U.S. government's official web portal to all federal, state and local government web resources and services.